Вернуться в каталог

SL-12 R/B(2)

АктивенMEO
NORAD 23516·ROCKET BODY·🇷🇺 Russia

Запущен Mar 7, 1995 с Baikonur Cosmodrome

Loading…

Ближайшие Пролёты (ближайшие 24 часа)

TLE

СвежийSource: Space-Track

Эпоха: Sep 13, 2026, 11:25 UTC

1 23516U 95009F   26256.47624056 -.00000031  00000-0  00000-0 0  9990
2 23516  63.9324 297.1997 0023709 233.0892 237.3224  2.13308508245563

Отслеживайте SL-12 R/B(2) в реальном времени с AllMySat

Download on the App Store